www.pogodaiklimat.ru

Погода и климат >> Архив погоды >> Индонезия >> Керинчи


ПОГОДА на Керинчи

  • Прогноз погоды на Керинчи
  • Монитор погоды на Керинчи

АРХИВ ПОГОДЫ на Керинчи

Время (UTC), дата Ветер
(напр.,м/с)
 
Видим.   Явления Облачность Т
(С)
Тd
(С)
f
(%)
Тe
(С)
Тes
(С)
Комфортность P
(гПа)
Po
(гПа)
Тmin
(С)
Tmax
(С)
R
(мм)
R24
(мм)
S
(см)
21 11.09 штиль 0 4000 м 8/3 420 м
[Sc Ac trans Ci fib]
+19.4 +14.1 71 +21 +21 комфорт 1016.1 926.4
00 12.09 штиль 0 3000 м мгла 6/4 360 м
[Sc Ac trans Ci fib]
+15.5 +14.2 92 +15 +16 1018.8 927.8 +15.6
03 12.09 З 1 4000 м дым 5/3 450 м
[Cu hum Ac trans Ci fib]
+21.5 +17.2 77 +26 +36 душно 1019.5 928.5
06 12.09 Ю 4 5000 м 4/3 450 м
[Cu hum Ac trans Ci fib]
+28.2 +15.9 47 +31 +41 душно 1016.0 925.2
09 12.09 ЮВ 6 5000 м дым 8/5 450 м
[Cu med, cong Ac trans Ci fib]
+28.5 +14.6 43 +31 +32 душно 1013.9 923.3
12 12.09 штиль 0 5000 м дым 8/4 450 м
[Cu med, cong Ac trans Ci fib]
+23.6 +16.6 65 +27 +27 жарко 1015.4 924.7 +30.0
15 12.09 штиль 0 5000 м дым 9/5 420 м
[Sc Ac trans Ci fib]
+19.6 +16.2 81 +22 +22 комфорт 1017.5 926.6
18 12.09 штиль 0 4000 м дым 9/5 400 м
[Sc Ac trans Ci fib]
+17.6 +15.0 85 +18 +18 1016.8 926.0
21 12.09 штиль 0 2000 м дым 9/5 400 м
[Sc Ac trans Ci fib]
+16.2 +14.6 90 +16 +16 1016.7 925.8
00 13.09 штиль 0 2000 м дымка 9/5 360 м
[Sc Ac trans Ci fib]
+15.6 +14.5 93 +15 +16 1018.0 927.0 +15.5
03 13.09 штиль 0 3000 м дым 5/4 420 м
[Cu hum Ac trans Ci fib]
+22.1 +18.1 78 +27 +38 душно 1018.4 927.5
06 13.09 ЮВ 2 1000 м дым 5/4 450 м
[Cu hum Ac trans Ci fib]
+28.8 +16.2 46 +32 +45 душно 1014.9 924.2
09 13.09 Ю 3 3000 м дым 5/4 450 м
[Cu hum Ac trans Ci fib]
+28.6 +18.3 54 +33 +36 очень
душно
1013.7 923.2
12 13.09 СЗ 2 4000 м дым 8/4 500 м
[Sc Ac trans Ci fib]
+23.6 +19.2 76 +28 +28 душно 1015.5 924.7 +30.2
18 13.09 С 1 5000 м 9/5 450 м
[Sc Ac trans Ci fib]
+18.4 +17.2 93 +20 +20 1017.1 926.2
21 13.09 С 1 4000 м дымка 10/5 420 м
[Sc Ac trans Ci fib]
+17.2 +15.9 92 +18 +18 1016.3 925.5
00 14.09 штиль 0 3000 м мгла 10/8 360 м
[Sc Ac trans Ci fib]
+17.1 +15.8 92 +17 +17 1018.0 927.0 +16.6
03 14.09 С 2 6000 м дым 6/4 420 м
[Cu hum Ac trans Ci fib]
+23.6 +17.6 69 +28 +35 душно 1018.3 927.3
06 14.09 Ю 3 10 км 5/3 420 м
[Cu hum Ac trans Ci fib]
+28.5 +28.1 98 +48 +58 опасность
перегрева
1016.3 924.6
09 14.09 Ю 2 9000 м 6/3 450 м
[Cu med, cong Ac trans Ci fib]
+28.6 +17.8 52 +33 +37 очень
душно
1013.2 923.6
12 14.09 штиль 0 6000 м 6/3 420 м
[Sc Ac trans Ci fib]
+25.4 +18.6 66 +30 +30 душно 1015.4 924.4 +29.2
15 14.09 штиль 0 4000 м 6/3 600 м
[Sc Ac trans Ci fib]
+18.4 +16.9 91 +19 +19 1017.1 926.5
18 14.09 штиль 0 4000 м 8/4 540 м
[Sc Ac trans Ci fib]
+17.4 +16.0 91 +17 +17 1015.8 924.6
21 14.09 штиль 0 4000 м 8/4 500 м
[Sc Ac trans Ci fib]
+16.5 +15.4 93 +16 +16 1014.7 924.2
00 15.09 штиль 0 8000 м 6/3 450 м
[Sc Ac trans Ci fib]
+12.8 +10.5 86 +12 +13 1016.0 925.3 +13.2
03 15.09 штиль 0 9000 м 9/3 480 м
[Sc Ac trans Ci fib]
+18.4 +11.3 63 +19 +27 1016.6 925.8
06 15.09 ЮВ 1 9000 м 8/3 500 м
[Sc Ci sp]
+27.1 +8.7 31 +27 +42 жарко 1013.8 923.4
09 15.09 Ю 4 10 км 5/1 500 м
[Cu hum Ac trans Ci fib]
+27.2 +6.3 26 +26 +30 жарко 1011.8 921.4
12 15.09 С 1 10 км 4/3 540 м
[Cu hum Ac trans Ci fib]
+21.3 +16.3 73 +25 +25 комфорт 1013.3 922.8 +30.4
15 15.09 штиль 0 7000 м 6/3 500 м
[Sc Ac trans Ci fib]
+20.1 +15.8 76 +22 +22 комфорт 1013.9 923.3
00 16.09 штиль 0 4000 м мгла 9/5 360 м
[Sc Ac trans Ci fib]
+13.9 +12.2 89 +13 +14 1015.5 924.8 +13.4
03 16.09 З 1 3000 м дым 8/4 400 м
[Sc Ac trans Ci fib]
+19.9 +16.8 82 +24 +31 комфорт 1016.4 925.6
09 16.09 ЮВ 5 2000 м дым 8/4 450 м
[Cu med, cong Ac trans Ci fib]
+26.2 +17.2 58 +30 +32 душно 1011.1 920.7
12 16.09 Ю 2 2000 м дым 8/4 450 м
[Sc Ac trans Ci fib]
+22.6 +18.3 77 +28 +28 душно 1012.6 922.3 +28.6
15 16.09 штиль 0 2000 м осадки на расстоянии 8/4 450 м
[Sc Ac trans Ci fib]
+20.6 +17.9 85 +24 +24 комфорт 1014.6 924.1
18 16.09 штиль 0 3000 м осадки на расстоянии 8/4 480 м
[Sc Ac trans Ci fib]
+18.8 +15.3 80 +20 +20 1014.5 923.8
21 16.09 штиль 0 2000 м осадки на расстоянии 9/4 450 м
[Sc Ac trans Ci fib]
+16.5 +15.4 93 +16 +16 1014.0 923.2
00 17.09 штиль 0 1000 м дым 10/6 360 м
[Sc Ac trans Ci fib]
+16.7 +15.8 94 +17 +17 1016.1 925.3 +13.2
03 17.09 Ю 3 1000 м дым {туман} ?/? +23.6 +16.6 65 +27 +27 жарко 1016.7 925.8
06 17.09 Ю 3 2000 м дым 5/4 420 м
[Cu hum Ac trans Ci fib]
+27.2 +15.9 50 +30 +40 душно 1013.5 923.0
09 17.09 Ю 3 4000 м дым 6/4 450 м
[Cu med, cong Ac trans Ci fib]
+29.0 +16.5 47 +32 +35 душно 1011.9 921.5
12 17.09 Ю 2 4000 м осадки на расстоянии 8/4 500 м
[Sc Ac trans Ci fib]
+23.6 +18.2 72 +28 +28 душно 1013.8 923.1 +29.4
18 17.09 штиль 0 5000 м дым 5/3 420 м
[Sc Ci fib]
+19.6 +17.8 89 +22 +22 комфорт 1015.3 924.6
00 18.09 штиль 0 1000 м дым 9/5 360 м
[Sc Ac trans Ci fib]
+17.6 +16.4 93 +18 +18 1016.9 926.0 +13.4
03 18.09 Ю 2 2000 м дым 6/4 420 м
[Cu hum Ac trans Ci fib]
+24.2 +19.1 73 +29 +37 душно 1017.1 926.2
06 18.09 Ю 4 5000 м дым 4/3 480 м
[Cu hum Ac trans Ci fib]
+28.4 +16.0 47 +32 +42 душно 1014.2 923.6
09 18.09 Ю 2 7000 м 4/3 450 м
[Cu med, cong Ac trans Ci fib]
+30.0 +16.1 43 +33 +37 душно 1012.0 922.4
12 18.09 ЮВ 2 8000 м 4/3 450 м
[Sc Ac trans Ci fib]
+26.6 +17.0 56 +31 +31 душно 1014.6 924.4 +30.6
15 18.09 В 1 4000 м 8/4 540 м
[Sc Ac trans Ci fib]
+22.2 +19.7 86 +28 +28 душно 1016.6 925.8
18 18.09 штиль 0 5000 м 6/4 600 м
[Sc Ac trans Ci fib]
+20.8 +19.0 89 +25 +25 комфорт 1015.6 924.8

 

Местоположение метеостанции Керинчи (Индонезия): широта -2.77 долгота 101.36 высота над уровнем моря 782 м.

В архиве по умолчанию представлена погода на Керинчи за последнюю неделю. Архивные данные за месяц целиком и за предыдущие месяцы, начиная с января 2011 года, Вы можете получить, выбрав интересующий диапазон дат из раскрывающегося списка и нажав кнопку "Ввод!".


*Определитесь, кто Вы:
робот инопланетянин человек

Внимание! Время в таблицах - всемирное. Для получения местного времени необходимо прибавить поправку, которая равна 7 ч.

Смотрите также архив погоды в соседних городах и на ближайших метеорологических станциях:

Погода в Бенкулу (Индонезия) (164 км)
Погода в Паданге (Индонезия) (238 км)
Погода в Джамби (Индонезия) (284 км)
Погода в Аэропорту Япура (Индонезия) (291 км)
Погода в Пеканбару (Индонезия) (361 км)
Погода в Палембанге (Индонезия) (371 км)
Погода в Аэропорту Дабо (Индонезия) (439 км)
Погода в Танджунгкаранге (Индонезия) (497 км)
Погода в Аэропорту Ханга Надима (Индонезия) (530 км)
Погода в Панкалпинанге (Индонезия) (534 км)

Пояснения к столбцам:

Ветер - указаны скорость ветра в м/с - средняя за 10 мин, порывы в срок и между сроками (в фигурных скобках) и направление, откуда дует ветер: С - северный, СВ - северо-восточный, В - восточный, ЮВ - юго-восточный, Ю - южный, ЮЗ - юго-западный, З - западный, СЗ - северо-западный.
Видимость - горизонтальная дальность видимости в метрах или километрах. При видимости от 1 до 10 км при отсутствии осадков обычно наблюдается дымка, при ухудшении видимости до 1 км и менее - туман. В сухую погоду видимость может ухудшаться дымом, пылью или мглою.
Явления - указаны атмосферные явления, наблюдавшиеся в срок или в последний час перед сроком; фигурными скобками обозначены явления, наблюдавшиеся между сроками (за 1-3 часа до срока); квадратными скобками обозначены град или гололедные отложения с указанием их диаметра в мм.
Облачность - указаны через наклонную черту общая и нижняя облачность в баллах и высота нижней границы облаков в метрах; квадратными скобками обозначены формы облаков: Ci - перистые, Cs - перисто-слоистые, Cc - перисто-кучевые, Ac - высококучевые, As - высокослоистые, Sc - слоисто-кучевые, Ns - слоисто-дождевые, Cu - кучевые, Cb - кучево-дождевые. Подробнее классификацию облаков см. в Атласе облаков (PDF).
T - Температура воздуха - температура, измеренная на высоте 2 м над землей.
Td - Температура точки росы - температура, при понижении до которой содержащийся в воздухе водяной пар достигнет насыщения.
f - Относительная влажность воздуха - влажноcть воздуха, измеренная на высоте 2 м над землей.
Te - Эффективная температура - температура, которую ощущает одетый по сезону человек в тени. Характеристика душности погоды. При расчете учитывается влияние влажности воздуха и скорости ветра на теплоощущения человека.
Tes - Эффективная температура на солнце - температура, которую ощущает человек, с поправкой на солнечный нагрев. Характеристика знойности погоды. Зависит от высоты солнца над горизонтом, облачности и скорости ветра. Ночью, в пасмурную погоду, а также при ветре 12 м/с и более поправка равна нулю.
P - Атмосферное давление - приведенное к уровню моря атмосферное давление.
Po - Атмосферное давление - измеренное на уровне метеостанции атмосферное давление.
Tmin - Минимальная температура - минимум температуры воздуха на высоте 2 м над землей.
Tmax - Максимальная температура - максимум температуры воздуха на высоте 2 м над землей.
R - Количество осадков - Количество выпавших осадков за период времени, мм. При наведении курсора мыши на число - период времени, за который выпало указанное количество осадков.
R24 - Количество осадков - Количество выпавших осадков за 24 часа, мм.
S - Снежный покров - Высота снежного покрова, см. При наведении курсора мыши на число - состояние снежного покрова и степень покрытия местности в баллах.